Location: Aytr�
(46.1357°N, 1.1145°W)
Time: 10:02:55
(UTC+00:00)

Tiangong - Pass Details

Date: 03 October 2021
Orbit: 382 x 385 km, 41.5° (Epoch: 15 October)

Event Time Altitude Azimuth Distance (km) Brightness Sun altitude
Exits shadow 03:28:42 11° 109° (ESE) 1,323 4.3 -27.3°
Drops below altitude 10° 03:28:54 10° 107° (ESE) 1,399 4.5 -27.3°
Sets 03:31:06 0° 97° (E) 2,252 5.8 -26.9°
